Back to catalog

STARLINK-2507

AliveCommunicationsVLEO
NORAD 48316·PAYLOAD·🇺🇸 United States

Launched Apr 29, 2021 from Cape Canaveral Space Force Station

Loading…

Next Passes (next 24 hours)

TLE

FreshSource: CelesTrak SupGP

Epoch: Sep 14, 2026, 13:58 UTC

1 48316C 21036AS  26257.58243056  .00052099  00000+0  16745-2 0  2575
2 48316  53.1566 299.8594 0001211  84.5774 107.1388 15.31692491    16

Track STARLINK-2507 in real time with AllMySat

Download on the App Store